Date String (YYYY-MM-DD hh:mm:ss) UTC,Instrument flags,Ambient pressure (hPa),Sample flow (lpm),Bypass flow (lpm),Sample temperature (°C),Ambient temperature (°C),ASC tube jacket temperature (°C),LED temperature (°C),Box temperature (°C),Sample RH (%),Span deviation,Mass concentration (μg/m³),Mass concentration (μg/m³),Mass concentration (μg/m³)
DateTimeUTC,F1_M11,P_M11,Q1_M11,Q2_M11,T1_M11,T2_M11,T3_M11,T4_M11,T5_M11,U1_M11,ZSPAN_M11,X0_M11,X2_M11,X1_M11
2022-03-24 07:00:00,,0825.7,5.01,0.00,21.5,20.5,00.0,30.5,23.1,08.8,0000.0,0004.60,0001.78,0001.14
2022-03-24 07:01:00,,0825.7,5.00,0.00,21.5,20.5,00.0,30.5,23.1,08.8,0000.0,0004.26,0001.76,0001.13
2022-03-24 07:02:00,,0825.7,5.01,0.00,21.4,20.4,00.0,30.5,23.1,08.7,0000.0,0004.11,0001.74,0001.12
2022-03-24 07:03:00,,0825.7,5.00,0.00,21.4,20.4,00.0,30.5,23.1,08.8,0000.0,0004.02,0001.71,0001.12
2022-03-24 07:04:00,,0825.7,5.01,0.00,21.4,20.4,00.0,30.5,23.0,08.8,0000.0,0003.95,0001.70,0001.10
2022-03-24 07:05:00,,0825.7,5.00,0.00,21.4,20.4,00.0,30.5,23.0,08.9,0000.0,0003.90,0001.73,0001.11
2022-03-24 07:06:00,,0825.7,5.00,0.00,21.4,20.4,00.0,30.5,23.0,08.9,0000.0,0003.18,0001.69,0001.10
2022-03-24 07:07:00,,0825.7,5.00,0.00,21.3,20.4,00.0,30.5,23.0,09.0,0000.0,0003.01,0001.69,0001.10
2022-03-24 07:08:00,,0825.7,5.01,0.00,21.4,20.6,00.0,30.5,23.1,09.1,0000.0,0002.95,0001.65,0001.09
2022-03-24 07:09:00,,0825.7,5.00,0.00,21.5,21.4,00.0,30.5,23.4,09.0,0000.0,0002.96,0001.62,0001.08
2022-03-24 07:10:00,,0825.7,5.01,0.00,21.6,22.3,00.0,30.6,23.7,08.9,0000.0,0002.94,0001.62,0001.08
2022-03-24 07:11:00,,0825.7,4.99,0.00,21.8,22.9,00.0,30.6,23.9,08.8,0000.0,0003.06,0001.66,0001.08
2022-03-24 07:12:00,,0825.7,5.01,0.00,21.9,22.6,00.0,30.6,23.9,08.8,0000.0,0002.92,0001.61,0001.08
2022-03-24 07:13:00,,0825.7,5.00,0.00,21.9,22.3,00.0,30.7,23.8,08.8,0000.0,0002.92,0001.62,0001.09
2022-03-24 07:14:00,,0825.7,4.99,0.00,21.9,22.0,00.0,30.7,23.7,08.7,0000.0,0003.66,0001.64,0001.10
2022-03-24 07:15:00,,0825.7,5.01,0.00,21.8,21.7,00.0,30.7,23.6,08.7,0000.0,0004.25,0001.65,0001.11
2022-03-24 07:16:00,,0825.7,4.99,0.00,21.8,21.5,00.0,30.7,23.6,08.8,0000.0,0004.18,0001.65,0001.12
2022-03-24 07:17:00,,0825.6,5.01,0.00,21.8,21.4,00.0,30.7,23.6,08.7,0000.0,0004.28,0001.68,0001.13
2022-03-24 07:18:00,,0825.6,5.00,0.00,21.8,21.3,00.0,30.7,23.6,08.7,0000.0,0004.41,0001.75,0001.15
2022-03-24 07:19:00,,0825.6,5.00,0.00,21.8,21.2,00.0,30.7,23.5,08.7,0000.0,0005.22,0001.79,0001.17
2022-03-24 07:20:00,,0825.6,4.99,0.00,21.7,21.1,00.0,30.7,23.5,08.7,0000.0,0005.67,0001.81,0001.19
2022-03-24 07:21:00,,0825.6,5.01,0.00,21.7,21.0,00.0,30.7,23.5,08.7,0000.0,0006.23,0001.84,0001.20
2022-03-24 07:22:00,,0825.6,5.00,0.00,21.7,21.0,00.0,30.7,23.5,08.7,0000.0,0006.19,0001.86,0001.21
2022-03-24 07:23:00,,0825.6,5.00,0.00,21.7,21.0,00.0,30.7,23.4,08.7,0000.0,0006.26,0001.90,0001.23
2022-03-24 07:24:00,,0825.6,5.01,0.00,21.7,20.9,00.0,30.7,23.4,08.7,0000.0,0006.28,0001.92,0001.24
2022-03-24 07:25:00,,0825.6,5.01,0.00,21.7,20.9,00.0,30.7,23.4,08.8,0000.0,0005.89,0001.94,0001.24
2022-03-24 07:26:00,,0825.5,5.01,0.00,21.7,20.9,00.0,30.7,23.4,08.9,0000.0,0005.60,0001.94,0001.23
2022-03-24 07:27:00,,0825.5,5.00,0.00,21.7,20.9,00.0,30.7,23.4,08.8,0000.0,0006.47,0001.92,0001.22
2022-03-24 07:28:00,,0825.6,4.99,0.00,21.6,20.8,00.0,30.7,23.3,08.8,0000.0,0006.53,0001.94,0001.22
2022-03-24 07:29:00,,0825.6,5.01,0.00,21.6,20.8,00.0,30.7,23.3,09.0,0000.0,0006.44,0001.90,0001.21
2022-03-24 07:30:00,,0825.6,4.99,0.00,21.6,20.8,00.0,30.7,23.3,09.2,0000.0,0005.88,0001.88,0001.20
2022-03-24 07:31:00,,0825.6,5.00,0.00,21.6,20.7,00.0,30.7,23.3,09.2,0000.0,0005.71,0001.90,0001.19
2022-03-24 07:32:00,,0825.5,5.00,0.00,21.6,20.7,00.0,30.7,23.2,09.2,0000.0,0005.78,0001.84,0001.18
2022-03-24 07:33:00,,0825.5,5.00,0.00,21.6,20.7,00.0,30.7,23.2,09.1,0000.0,0005.79,0001.80,0001.17
2022-03-24 07:34:00,,0825.5,5.00,0.00,21.6,20.6,00.0,30.7,23.2,09.0,0000.0,0005.96,0001.84,0001.17
2022-03-24 07:35:00,,0825.5,5.00,0.00,21.5,20.6,00.0,30.6,23.2,09.0,0000.0,0006.18,0001.86,0001.17
2022-03-24 07:36:00,,0825.5,4.99,0.00,21.5,20.6,00.0,30.6,23.2,09.0,0000.0,0006.04,0001.82,0001.18
2022-03-24 07:37:00,,0825.5,5.00,0.00,21.5,20.6,00.0,30.6,23.2,09.0,0000.0,0005.95,0001.89,0001.19
2022-03-24 07:38:00,,0825.5,5.00,0.00,21.5,20.6,00.0,30.6,23.2,09.0,0000.0,0004.99,0001.95,0001.21
2022-03-24 07:39:00,,0825.5,5.00,0.00,21.5,20.7,00.0,30.6,23.2,09.0,0000.0,0004.88,0001.92,0001.22
2022-03-24 07:40:00,,0825.5,5.00,0.00,21.5,20.7,00.0,30.6,23.2,09.0,0000.0,0004.82,0001.92,0001.23
2022-03-24 07:41:00,,0825.5,5.00,0.00,21.5,20.6,00.0,30.6,23.2,09.0,0000.0,0004.76,0001.91,0001.23
2022-03-24 07:42:00,,0825.5,4.99,0.00,21.5,20.6,00.0,30.6,23.2,09.1,0000.0,0004.81,0001.91,0001.24
2022-03-24 07:43:00,,0825.5,5.01,0.00,21.5,20.6,00.0,30.6,23.2,09.1,0000.0,0003.91,0001.94,0001.24
2022-03-24 07:44:00,,0825.5,5.00,0.00,21.5,20.6,00.0,30.6,23.1,09.1,0000.0,0003.90,0001.95,0001.25
2022-03-24 07:45:00,,0825.5,5.00,0.00,21.5,20.6,00.0,30.6,23.2,09.2,0000.0,0003.86,0001.93,0001.24
2022-03-24 07:46:00,,0825.5,5.00,0.00,21.5,20.6,00.0,30.5,23.2,09.1,0000.0,0003.65,0001.90,0001.22
2022-03-24 07:47:00,,0825.4,5.00,0.00,21.5,20.6,00.0,30.5,23.2,09.1,0000.0,0003.76,0001.93,0001.20
2022-03-24 07:48:00,,0825.5,5.00,0.00,21.5,20.6,00.0,30.5,23.2,09.1,0000.0,0003.97,0001.97,0001.19
2022-03-24 07:49:00,,0825.5,5.00,0.00,21.5,20.7,00.0,30.5,23.2,09.2,0000.0,0004.02,0001.99,0001.19
2022-03-24 07:50:00,,0825.4,5.00,0.00,21.5,20.7,00.0,30.5,23.2,09.2,0000.0,0004.02,0001.98,0001.18
2022-03-24 07:51:00,,0825.5,4.99,0.00,21.6,21.3,00.0,30.6,23.4,09.1,0000.0,0004.51,0001.99,0001.18
2022-03-24 07:52:00,,0825.5,5.01,0.00,21.7,22.1,00.0,30.6,23.7,09.1,0000.0,0004.69,0002.04,0001.18
2022-03-24 07:53:00,,0825.5,5.01,0.00,21.9,22.9,00.0,30.7,24.0,09.0,0000.0,0004.49,0002.05,0001.17
2022-03-24 07:54:00,,0825.5,5.00,0.00,22.0,23.2,00.0,30.7,24.1,08.9,0000.0,0005.52,0002.06,0001.17
2022-03-24 07:55:00,,0825.4,5.01,0.00,22.1,22.8,00.0,30.8,24.1,08.9,0000.0,0005.72,0002.07,0001.17
2022-03-24 07:56:00,,0825.4,5.00,0.00,22.1,22.5,00.0,30.8,24.0,09.0,0000.0,0005.67,0002.09,0001.17
2022-03-24 07:57:00,,0825.4,4.99,0.00,22.1,22.3,00.0,30.8,23.9,09.0,0000.0,0005.57,0002.07,0001.19
2022-03-24 07:58:00,,0825.4,5.00,0.00,22.1,22.0,00.0,30.8,23.9,09.0,0000.0,0005.93,0002.04,0001.20
2022-03-24 07:59:00,,0825.4,5.01,0.00,22.1,21.8,00.0,30.9,23.9,08.9,0000.0,0005.82,0001.94,0001.19
